This is the latest recevied weather packets stored in our database for station/object VR2OT-10. If no packets are shown the sender has not sent any weather packets the latest 10 day(s).
| Time | Temp. | Humidity | Pressure | Rain* | Wind** | Luminosity | Snow |
|---|---|---|---|---|---|---|---|
| 1778152638 | 24.44° C | 82% | 1010.6 hPa | - | 3.58 m/s, 135° | - | - |
| 1778151739 | 24.44° C | 82% | 1010.5 hPa | - | 4.02 m/s, 135° | - | - |
| 1778150838 | 24.44° C | 80% | 1010.3 hPa | - | 4.47 m/s, 135° | - | - |
| 1778149939 | 24.44° C | 79% | 1010.1 hPa | - | 4.02 m/s, 135° | - | - |
| 1778149038 | 24.44° C | 78% | 1010.1 hPa | - | 4.02 m/s, 135° | - | - |
| 1778148137 | 25° C | 76% | 1009.8 hPa | - | 4.47 m/s, 135° | - | - |
| 1778147238 | 25° C | 76% | 1010 hPa | - | 4.02 m/s, 135° | - | - |
| 1778146339 | 25° C | 74% | 1010 hPa | - | 4.47 m/s, 135° | - | - |
| 1778145438 | 25.56° C | 74% | 1009.7 hPa | - | 4.47 m/s, 135° | - | - |
| 1778144538 | 25.56° C | 72% | 1009.7 hPa | - | 4.02 m/s, 135° | - | - |
| 1778143637 | 25.56° C | 71% | 1009.7 hPa | - | 4.02 m/s, 135° | - | - |
| 1778142737 | 25.56° C | 70% | 1009.7 hPa | - | 4.02 m/s, 135° | - | - |
| 1778141838 | 25.56° C | 70% | 1009.8 hPa | - | 4.02 m/s, 135° | - | - |
| 1778140939 | 25.56° C | 70% | 1010.2 hPa | - | 4.02 m/s, 135° | - | - |
| 1778140038 | 26.11° C | 70% | 1010.2 hPa | - | 4.02 m/s, 135° | - | - |
| 1778138238 | 25.56° C | 70% | 1010.5 hPa | - | 4.47 m/s, 135° | - | - |
| 1778137337 | 25.56° C | 70% | 1010.7 hPa | - | 4.92 m/s, 135° | - | - |
| 1778136438 | 26.11° C | 69% | 1010.7 hPa | - | 4.92 m/s, 135° | - | - |
| 1778135538 | 26.67° C | 68% | 1011 hPa | - | 5.36 m/s, 135° | - | - |
| 1778134637 | 26.67° C | 66% | 1011.2 hPa | - | 4.92 m/s, 135° | - | - |
| 1778132838 | 26.67° C | 69% | 1011.3 hPa | - | 4.47 m/s, 135° | - | - |
| 1778131938 | 26.67° C | 69% | 1011.5 hPa | - | 4.47 m/s, 135° | - | - |
| 1778130139 | 26.11° C | 69% | 1011.7 hPa | - | 5.36 m/s, 135° | - | - |
| 1778129237 | 26.67° C | 69% | 1011.7 hPa | - | 5.81 m/s, 135° | - | - |
| 1778127437 | 26.67° C | 69% | 1012.2 hPa | - | 4.92 m/s, 135° | - | - |
* Rain since midnight (hover to see other rain measurements)
** Current wind speed in m/s (hover to see current wind gust speed)